[[{"header":{"parameterUnit":"m.s-1","parameterCategory":1,"la1":30.2991,"la2":30.254,"lo1":-89.0895,"lo2":-89.0444,"dy":0.0017,"dx":0.0017,"nx":28,"ny":28,"refTime":"2025-06-18T09:00:00:Z","depth":0,"parameterNumber":2,"parameterNumberName":"U-component_of_WINDS"},"data":[0,0,0,0,0,0,0,0,0,0,0,0,0,0,0,0,0,0,0,0,0,0,0,0,0,0,0,0,0,0,0,0,0,0,0,0,0,0,0,0,0,0,0,0,0,0,0,0,0,0,0,0,0,0,0,0,0,0,1.7214,1.7215,0,1.7278,1.7279,1.728,1.7332,1.7332,1.7333,1.7333,1.7399,1.74,1.7401,0,0,0,0,0,0,0,0,0,0,0,0,0,1.714,1.7141,1.7214,1.7215,1.7216,1.7278,1.7279,1.728,1.7331,1.7332,1.7333,1.7333,1.7398,1.74,1.7401,0,0,0,0,0,0,0,0,0,0,0,0,0,1.7185,1.7141,1.7214,1.7249,1.7253,1.7278,1.7279,1.728,1.7331,1.7332,1.7333,1.7334,1.7398,1.74,1.7402,1.7397,0,0,1.7407,1.7408,0,0,0,0,0,0,0,0,1.7182,1.7187,1.7243,1.7247,1.7251,1.7298,1.7277,1.7319,1.7331,1.7301,1.7333,1.7334,1.7365,1.7369,1.7379,1.74,1.7403,1.7407,1.7409,1.7409,1.741,0,0,0,0,0,0,0,1.7179,1.7185,1.7239,1.7244,1.7249,1.7263,1.727,1.7285,1.7328,1.7304,1.7308,1.7315,1.7367,1.7378,1.7381,1.7404,1.7407,1.7409,1.741,1.7411,1.7429,1.7428,0,0,0,0,0,0,1.717,1.7182,1.7237,1.7241,1.7218,1.7263,1.7271,1.7282,1.7328,1.7335,1.7314,1.7317,1.7374,1.7379,1.7384,1.7384,1.7409,1.7411,1.7412,1.7429,1.7429,1.7428,0,0,0,0,0,0,1.7168,1.7174,1.7235,1.7213,1.7222,1.7264,1.7275,1.7283,1.7293,1.7335,1.7343,1.7317,1.7375,1.7381,1.7394,1.7387,1.7412,1.7414,1.743,1.7429,1.7428,1.7382,0,0,0,0,0,0,1.7166,1.7173,1.7171,1.7212,1.7222,1.7243,1.7275,1.7283,1.7296,1.7301,1.734,1.7347,1.7376,1.7391,1.7396,1.739,1.7415,1.7431,1.743,1.7429,1.7384,1.7379,1.7375,0,0,0,0,0,1.7163,1.7154,1.717,1.7177,1.722,1.7242,1.7248,1.7281,1.7296,1.7294,1.7322,1.7346,1.7387,1.7392,1.7398,1.7392,1.7432,1.743,1.7429,1.7386,1.738,1.7375,0,0,0,0,0,0,1.711,1.716,1.7179,1.7183,1.7208,1.7251,1.725,1.7273,1.7294,1.7298,1.7338,1.7347,1.7356,1.7376,1.738,1.7392,1.7413,1.7413,1.7378,1.7373,1.7369,1.7363,1.7417,0,0,0,0,0,1.7099,1.7112,1.7156,1.7156,1.7167,1.7207,1.7217,1.7241,1.7269,1.7279,1.7308,1.7334,1.7353,1.7365,1.7384,1.7388,1.7399,1.7388,1.7383,1.7379,1.7378,1.7385,1.7381,1.7423,1.7423,1.7423,0,0,1.7076,1.7105,1.711,1.7146,1.7168,1.7182,1.7215,1.7227,1.7238,1.7281,1.7295,1.7318,1.735,1.7359,1.7365,1.7376,1.7369,1.7377,1.7374,1.7375,1.7383,1.7378,1.7375,1.7422,1.7422,1.7423,0,0,1.7041,1.7064,1.7067,1.709,1.7123,1.715,1.7151,1.7192,1.7209,1.7224,1.7258,1.7272,1.7304,1.7326,1.7342,1.7321,1.7344,1.7327,1.7302,1.7308,1.7305,1.7302,1.7296,1.7293,1.7326,1.7325,1.7325,0,1.7007,1.7028,1.7066,1.7077,1.7093,1.7134,1.7139,1.716,1.7198,1.7208,1.7221,1.7264,1.7289,1.7305,1.73,1.7311,1.7315,1.7321,1.7302,1.73,1.7298,1.7292,1.729,1.7323,1.7323,1.7324,1.7324,0,1.6987,1.7002,1.7001,1.7038,1.7054,1.7062,1.7102,1.7114,1.7138,1.7164,1.7182,1.7213,1.7242,1.7248,1.727,1.7269,1.7275,1.7294,1.7315,1.7291,1.7286,1.7284,1.732,1.732,1.7321,1.7322,0,0,1.6915,1.6977,1.6976,1.6994,1.7037,1.705,1.7062,1.709,1.71,1.7127,1.7139,1.7167,1.7187,1.7205,1.7231,1.7237,1.722,1.7256,1.7258,1.7249,1.7223,1.7207,1.7204,1.7238,1.7237,1.7237,1.722,0,1.6887,1.6908,1.6945,1.6956,1.6971,1.7014,1.7025,1.7053,1.7079,1.7098,1.7127,1.7147,1.7171,1.7182,1.719,1.722,1.7216,1.7223,1.725,1.725,1.7239,1.7201,1.7184,1.7166,1.7219,1.7218,1.7218,0,1.6854,1.688,1.6892,1.6938,1.6946,1.6954,1.6985,1.7002,1.7037,1.7056,1.7078,1.7108,1.7125,1.7146,1.7171,1.7175,1.719,1.7207,1.7207,1.721,1.7231,1.7202,1.7161,1.7158,1.7216,1.7216,1.7216,0,1.6801,1.6839,1.6853,1.6867,1.692,1.6926,1.6948,1.6984,1.7,1.7028,1.704,1.7069,1.7085,1.7109,1.7147,1.7158,1.7169,1.7192,1.7186,1.7185,1.7184,1.7183,1.7143,1.7195,1.7195,1.7195,1.7195,0,1.6765,1.677,1.683,1.6837,1.6847,1.6891,1.6899,1.6926,1.6958,1.6974,1.7013,1.7027,1.7077,1.7098,1.7128,1.7145,1.7152,1.7169,1.7177,1.7165,1.7163,1.7173,1.7175,1.7194,1.7194,1.7194,1.7194,0,1.6705,1.6745,1.6762,1.6812,1.6826,1.683,1.6874,1.6884,1.6915,1.6934,1.6942,1.699,1.7016,1.7058,1.7096,1.7117,1.713,1.7143,1.7117,1.7122,1.7113,1.7114,1.7078,1.7076,1.7129,1.7128,1.7128,0,1.6678,1.6684,1.6736,1.6749,1.677,1.6791,1.6809,1.6854,1.6871,1.6914,1.6919,1.695,1.6976,1.7017,1.7056,1.7087,1.7101,1.7087,1.7106,1.7095,1.7101,1.71,1.7102,1.7081,1.7081,1.708,1.7079,0,1.6626,1.6646,1.6669,1.6701,1.6721,1.6748,1.6777,1.6786,1.6839,1.6856,1.6884,1.6905,1.6946,1.6976,1.7014,1.7039,1.7068,1.7074,1.7074,1.7061,1.7046,1.7054,1.7104,1.7074,1.7074,1.7075,1.7075,1.7075,1.6581,1.659,1.6628,1.6654,1.6682,1.6709,1.6722,1.6756,1.678,1.6817,1.6844,1.6871,1.691,1.6963,1.6988,1.7011,1.7024,1.7024,1.7023,1.7022,1.7018,1.7044,1.7018,1.7019,1.7019,1.7019,1.7019,0,1.6531,1.6559,1.6583,1.6623,1.6644,1.6672,1.6707,1.6723,1.6747,1.6781,1.6807,1.6842,1.6873,1.6916,1.6951,1.6961,1.6976,1.6969,1.6968,1.6974,1.7005,1.7001,1.6957,1.6957,1.6957,1.6957,1.6957,1.6957,1.6507,1.6523,1.6549,1.6581,1.661,1.6637,1.6655,1.6681,1.6709,1.6746,1.6772,1.6801,1.684,1.6879,1.6909,1.6922,1.6932,1.6921,1.6937,1.6965,1.6971,1.6976,1.6973,1.6923,1.6923,1.6904,1.6904,1.6904]},{"header":{"parameterUnit":"m.s-1","parameterCategory":1,"la1":30.2991,"la2":30.254,"lo1":-89.0895,"lo2":-89.0444,"dy":0.0017,"dx":0.0017,"nx":28,"ny":28,"refTime":"2025-06-18T09:00:00:Z","depth":0,"parameterNumber":3,"parameterNumberName":"V-component_of_WINDS"},"data":[0,0,0,0,0,0,0,0,0,0,0,0,0,0,0,0,0,0,0,0,0,0,0,0,0,0,0,0,0,0,0,0,0,0,0,0,0,0,0,0,0,0,0,0,0,0,0,0,0,0,0,0,0,0,0,0,0,0,4.1543,4.1545,0,4.1699,4.1701,4.1702,4.1742,4.1742,4.1741,4.174,4.1891,4.1896,4.1901,0,0,0,0,0,0,0,0,0,0,0,0,0,4.127,4.1275,4.1543,4.1545,4.1547,4.1699,4.1701,4.1703,4.1743,4.1741,4.174,4.1739,4.189,4.1895,4.1901,0,0,0,0,0,0,0,0,0,0,0,0,0,4.1403,4.1276,4.1542,4.1585,4.159,4.1698,4.1701,4.1703,4.1743,4.1741,4.174,4.1739,4.1888,4.1895,4.1902,4.1976,0,0,4.1925,4.1928,0,0,0,0,0,0,0,0,4.1396,4.1413,4.1577,4.1582,4.1589,4.17,4.166,4.1795,4.1743,4.1685,4.174,4.1738,4.1828,4.184,4.1872,4.1983,4.199,4.1925,4.193,4.1933,4.1935,0,0,0,0,0,0,0,4.1386,4.1407,4.1604,4.1579,4.1586,4.1593,4.1611,4.1686,4.1762,4.169,4.1693,4.1711,4.1831,4.1865,4.1876,4.1992,4.1925,4.1932,4.1936,4.1939,4.2168,4.217,0,0,0,0,0,0,4.1371,4.1399,4.1599,4.1609,4.1487,4.1599,4.1619,4.1665,4.1762,4.1775,4.1712,4.1713,4.1853,4.1868,4.1882,4.1973,4.1933,4.194,4.1944,4.2166,4.2168,4.217,0,0,0,0,0,0,4.1365,4.1389,4.1593,4.1505,4.1532,4.1606,4.1658,4.1669,4.1704,4.1779,4.1792,4.1734,4.1853,4.1871,4.1952,4.1979,4.1943,4.195,4.2164,4.2167,4.2169,4.2158,0,0,0,0,0,0,4.1357,4.1386,4.1417,4.1505,4.1536,4.1664,4.1659,4.1673,4.1717,4.1719,4.1803,4.1815,4.1853,4.1941,4.196,4.1989,4.1955,4.2162,4.2166,4.2169,4.2156,4.216,4.2163,0,0,0,0,0,4.1347,4.1407,4.1419,4.1443,4.1577,4.1666,4.1683,4.1728,4.1719,4.175,4.1798,4.1812,4.1973,4.1949,4.197,4.2002,4.2161,4.2165,4.2168,4.2155,4.2159,4.2163,0,0,0,0,0,0,4.1317,4.1419,4.1434,4.1524,4.1586,4.1672,4.1712,4.1731,4.1795,4.1794,4.1844,4.1862,4.1939,4.1979,4.195,4.2077,4.2067,4.2075,4.2049,4.2054,4.2057,4.2045,4.1962,0,0,0,0,0,4.1322,4.1388,4.1472,4.1543,4.1574,4.1637,4.1678,4.1707,4.1772,4.1798,4.1852,4.1912,4.1976,4.2017,4.208,4.2162,4.2179,4.2194,4.2197,4.2199,4.2205,4.2249,4.2256,4.2182,4.2182,4.2182,0,0,4.133,4.1394,4.1432,4.1539,4.159,4.1655,4.1659,4.1727,4.1775,4.1807,4.1888,4.1929,4.1999,4.208,4.2119,4.2115,4.223,4.2204,4.2205,4.221,4.2254,4.2261,4.2267,4.2185,4.2185,4.2184,0,0,4.138,4.1435,4.1501,4.1552,4.1631,4.1673,4.1688,4.1771,4.1801,4.1883,4.1908,4.1963,4.2073,4.2122,4.2161,4.2226,4.2241,4.2245,4.2262,4.2304,4.2309,4.2315,4.2337,4.2344,4.2251,4.2251,4.2251,0,4.138,4.1481,4.1531,4.1598,4.1643,4.1677,4.1742,4.1788,4.1882,4.1911,4.1907,4.2044,4.2094,4.2186,4.2202,4.2233,4.225,4.2236,4.2305,4.2311,4.2317,4.2338,4.2346,4.2251,4.2251,4.2251,4.2251,0,4.1476,4.1546,4.1588,4.1681,4.173,4.1796,4.1852,4.1895,4.192,4.1961,4.2042,4.2103,4.2178,4.2202,4.2226,4.2297,4.2292,4.2296,4.2286,4.2323,4.2344,4.2352,4.225,4.2251,4.2251,4.2251,0,0,4.1512,4.1631,4.1646,4.1687,4.1776,4.1829,4.1894,4.197,4.2006,4.2068,4.2123,4.2214,4.2218,4.2262,4.2291,4.2328,4.2374,4.2327,4.2329,4.2333,4.2453,4.245,4.2459,4.2384,4.2386,4.2388,4.2447,0,4.1571,4.1693,4.1738,4.1836,4.1899,4.1932,4.1989,4.2047,4.2087,4.2143,4.2185,4.2249,4.225,4.2277,4.2315,4.236,4.2399,4.2357,4.2432,4.2435,4.2414,4.247,4.2467,4.2521,4.2456,4.2457,4.2458,0,4.1657,4.1723,4.1828,4.1908,4.1936,4.1987,4.2059,4.2114,4.218,4.2205,4.2254,4.2281,4.2347,4.2333,4.2423,4.2393,4.2427,4.2453,4.2456,4.2465,4.2448,4.2479,4.2539,4.2546,4.2472,4.2471,4.247,0,4.167,4.1786,4.1863,4.1898,4.1993,4.2028,4.2068,4.2133,4.2175,4.2237,4.2265,4.2332,4.2369,4.242,4.2462,4.2449,4.2548,4.2538,4.2569,4.2567,4.2588,4.2586,4.2653,4.261,4.261,4.261,4.261,0,4.1732,4.1794,4.1871,4.1918,4.1988,4.2038,4.2105,4.2147,4.2204,4.2258,4.2289,4.2338,4.2393,4.2448,4.2481,4.2549,4.2566,4.2586,4.2594,4.2584,4.2581,4.2606,4.2603,4.2612,4.2612,4.2611,4.2611,0,4.1759,4.1813,4.19,4.1983,4.2005,4.2053,4.2123,4.2168,4.2209,4.2276,4.2295,4.2357,4.2424,4.2472,4.2556,4.2579,4.2651,4.266,4.263,4.2634,4.2662,4.2658,4.2747,4.2761,4.2709,4.2709,4.271,0,4.1794,4.1843,4.1932,4.1972,4.2014,4.2077,4.2121,4.2171,4.2214,4.2292,4.2327,4.2396,4.2455,4.2558,4.2609,4.2673,4.2683,4.271,4.2693,4.268,4.2682,4.2679,4.2683,4.2712,4.2712,4.2712,4.2713,0,4.185,4.1875,4.1939,4.2011,4.2063,4.2122,4.2181,4.221,4.227,4.2317,4.2387,4.2432,4.2519,4.2586,4.2656,4.2694,4.2712,4.2718,4.2728,4.2717,4.2698,4.2708,4.2636,4.2715,4.2715,4.2715,4.2715,4.2715,4.1882,4.1927,4.1997,4.2066,4.2116,4.217,4.2217,4.2264,4.2324,4.2401,4.2426,4.2497,4.2559,4.2654,4.2693,4.2748,4.2746,4.2761,4.2765,4.2768,4.2767,4.269,4.276,4.276,4.276,4.276,4.276,0,4.1939,4.1986,4.2049,4.2132,4.2185,4.2201,4.2266,4.2309,4.2373,4.243,4.2487,4.2566,4.2631,4.2687,4.2753,4.2786,4.2796,4.2801,4.2799,4.2807,4.2765,4.2749,4.2792,4.2792,4.2792,4.2792,4.2792,4.2792,4.1976,4.2052,4.2084,4.2184,4.2229,4.2302,4.2338,4.2387,4.2433,4.2521,4.2576,4.2613,4.2669,4.274,4.2799,4.2813,4.2835,4.2839,4.2855,4.2814,4.2811,4.2807,4.2792,4.2844,4.2844,4.2893,4.2894,4.2894]}]]